Date String (YYYY-MM-DD hh:mm:ss) UTC,Instrument flags,absolute air pressure of the measurement (hPa),sample flow rate (lpm),inlet stack bypass flow (lpm),air temperature of the measurement (°C),ambient temperature measured by the external sensor (°C),aerosol sample conditioner tube jacket temperature (°C),OPC LED temperature (°C),internal box temperature (°C),relative humidity of the measurement (%),span deviation,mass concentration of particles derived from Lorenz-Mie calculation of OPC scattering (μg/m³),mass concentration of particles derived from Lorenz-Mie calculation of OPC scattering (μg/m³),mass concentration of particles derived from Lorenz-Mie calculation of OPC scattering (μg/m³)
DateTimeUTC,F1_M11,P_M11,Q1_M11,Q2_M11,T1_M11,T2_M11,T3_M11,T4_M11,T5_M11,U1_M11,ZSPAN_M11,X0_M11,X2_M11,X1_M11
2024-05-10 05:00:00,SystemResetWarning,0837.0,4.99,000.00,026.1,025.6,000.0,034.4,027.9,021.1,0000.0,0004.39,0002.65,0002.33
2024-05-10 05:01:00,SystemResetWarning,0837.0,4.99,000.00,026.2,025.6,000.0,034.4,027.9,021.0,0000.0,0004.37,0002.60,0002.28
2024-05-10 05:02:00,SystemResetWarning,0837.0,4.99,000.00,026.2,025.6,000.0,034.4,027.9,020.8,0000.0,0004.46,0002.59,0002.23
2024-05-10 05:03:00,SystemResetWarning,0837.0,5.01,000.00,026.2,025.6,000.0,034.4,027.9,020.7,0000.0,0004.43,0002.54,0002.18
2024-05-10 05:04:00,SystemResetWarning,0837.0,5.00,000.00,026.2,025.6,000.0,034.5,028.0,020.6,0000.0,0004.38,0002.49,0002.13
2024-05-10 05:05:00,SystemResetWarning,0837.0,4.99,000.00,026.2,025.6,000.0,034.5,028.0,020.8,0000.0,0004.33,0002.45,0002.07
2024-05-10 05:06:00,SystemResetWarning,0836.9,4.99,000.00,026.2,025.6,000.0,034.5,028.0,020.7,0000.0,0004.49,0002.42,0002.02
2024-05-10 05:07:00,SystemResetWarning,0836.9,5.00,000.00,026.2,025.6,000.0,034.5,027.9,020.7,0000.0,0005.06,0002.37,0001.97
2024-05-10 05:08:00,SystemResetWarning,0836.9,5.00,000.00,026.2,025.6,000.0,034.5,027.9,020.8,0000.0,0004.38,0002.32,0001.93
2024-05-10 05:09:00,SystemResetWarning,0836.9,5.00,000.00,026.2,025.6,000.0,034.5,028.0,020.7,0000.0,0004.02,0002.27,0001.91
2024-05-10 05:10:00,SystemResetWarning,0836.9,5.01,000.00,026.2,025.6,000.0,034.5,027.9,020.9,0000.0,0004.00,0002.22,0001.88
2024-05-10 05:11:00,SystemResetWarning,0836.9,4.99,000.00,026.2,025.6,000.0,034.5,028.0,020.9,0000.0,0003.96,0002.18,0001.84
2024-05-10 05:12:00,SystemResetWarning,0836.9,4.99,000.00,026.2,025.6,000.0,034.5,028.0,020.9,0000.0,0004.23,0002.18,0001.83
2024-05-10 05:13:00,SystemResetWarning,0837.0,5.00,000.00,026.2,025.6,000.0,034.5,028.0,020.9,0000.0,0004.47,0002.15,0001.81
2024-05-10 05:14:00,SystemResetWarning,0837.0,5.01,000.00,026.2,025.6,000.0,034.5,028.0,020.8,0000.0,0004.43,0002.13,0001.80
2024-05-10 05:15:00,SystemResetWarning,0837.0,5.00,000.00,026.2,025.6,000.0,034.5,028.0,020.8,0000.0,0004.38,0002.11,0001.80
2024-05-10 05:16:00,SystemResetWarning,0837.0,5.00,000.00,026.3,025.6,000.0,034.6,028.0,020.7,0000.0,0004.38,0002.13,0001.79
2024-05-10 05:17:00,SystemResetWarning,0837.0,5.00,000.00,026.3,025.6,000.0,034.6,028.0,020.8,0000.0,0004.31,0002.13,0001.78
2024-05-10 05:18:00,SystemResetWarning,0836.9,5.00,000.00,026.3,025.7,000.0,034.6,028.0,020.7,0000.0,0003.68,0002.15,0001.77
2024-05-10 05:19:00,SystemResetWarning,0836.9,4.99,000.00,026.2,025.0,000.0,034.6,027.6,020.6,0000.0,0003.81,0002.17,0001.76
2024-05-10 05:20:00,SystemResetWarning,0836.8,5.00,000.00,025.8,022.7,000.0,034.6,026.5,021.2,0000.0,0003.87,0002.18,0001.75
2024-05-10 05:21:00,SystemResetWarning,0836.8,5.01,000.00,025.4,022.0,000.0,034.6,026.0,021.7,0000.0,0003.81,0002.17,0001.74
2024-05-10 05:22:00,SystemResetWarning,0836.8,5.01,000.00,025.2,022.3,000.0,034.4,026.1,022.0,0000.0,0003.86,0002.20,0001.75
2024-05-10 05:23:00,SystemResetWarning,0836.8,5.00,000.00,025.1,022.7,000.0,034.2,026.3,022.2,0000.0,0003.77,0002.20,0001.74
2024-05-10 05:24:00,SystemResetWarning,0836.9,5.00,000.00,025.1,023.0,000.0,034.1,026.5,022.1,0000.0,0003.41,0002.23,0001.75
2024-05-10 05:25:00,SystemResetWarning,0836.9,5.00,000.00,025.1,023.4,000.0,034.0,026.6,022.2,0000.0,0003.51,0002.24,0001.75
2024-05-10 05:26:00,SystemResetWarning,0836.9,5.00,000.00,025.1,023.6,000.0,033.9,026.7,022.2,0000.0,0003.73,0002.34,0001.76
2024-05-10 05:27:00,SystemResetWarning,0836.8,5.00,000.00,025.2,023.9,000.0,033.8,026.8,022.1,0000.0,0003.79,0002.36,0001.76
2024-05-10 05:28:00,SystemResetWarning,0836.8,5.00,000.00,025.2,024.0,000.0,033.8,026.8,022.0,0000.0,0003.76,0002.35,0001.76
2024-05-10 05:29:00,SystemResetWarning,0836.8,4.99,000.00,025.2,024.2,000.0,033.8,026.9,022.1,0000.0,0003.70,0002.33,0001.76
2024-05-10 05:30:00,SystemResetWarning,0836.8,4.99,000.00,025.2,024.3,000.0,033.7,026.9,022.1,0000.0,0003.68,0002.33,0001.76
2024-05-10 05:31:00,SystemResetWarning,0836.8,5.00,000.00,025.3,024.5,000.0,033.7,027.0,022.1,0000.0,0003.85,0002.36,0001.75
2024-05-10 05:32:00,SystemResetWarning,0836.8,5.00,000.00,025.3,024.5,000.0,033.7,027.1,022.0,0000.0,0003.85,0002.36,0001.75
2024-05-10 05:33:00,SystemResetWarning,0836.8,5.00,000.00,025.3,024.6,000.0,033.7,027.1,021.9,0000.0,0004.15,0002.37,0001.74
2024-05-10 05:34:00,SystemResetWarning,0836.8,5.00,000.00,025.3,024.7,000.0,033.7,027.1,021.9,0000.0,0004.54,0002.34,0001.74
2024-05-10 05:35:00,SystemResetWarning,0836.8,5.00,000.00,025.4,024.8,000.0,033.7,027.2,021.9,0000.0,0005.40,0002.33,0001.72
2024-05-10 05:36:00,SystemResetWarning,0836.9,5.00,000.00,025.4,024.8,000.0,033.7,027.2,021.8,0000.0,0005.82,0002.34,0001.70
2024-05-10 05:37:00,SystemResetWarning,0836.8,5.01,000.00,025.4,024.9,000.0,033.7,027.2,021.8,0000.0,0006.81,0002.24,0001.67
2024-05-10 05:38:00,SystemResetWarning,0836.8,5.00,000.00,025.5,024.9,000.0,033.7,027.2,021.7,0000.0,0007.80,0002.18,0001.65
2024-05-10 05:39:00,SystemResetWarning,0836.8,5.00,000.00,025.5,024.9,000.0,033.7,027.3,021.7,0000.0,0007.82,0002.18,0001.64
2024-05-10 05:40:00,SystemResetWarning,0836.8,5.00,000.00,025.5,025.0,000.0,033.8,027.3,021.7,0000.0,0007.84,0002.19,0001.63
2024-05-10 05:41:00,SystemResetWarning,0836.8,5.00,000.00,025.5,025.0,000.0,033.8,027.3,021.7,0000.0,0007.81,0002.18,0001.62
2024-05-10 05:42:00,SystemResetWarning,0836.8,5.00,000.00,025.6,025.0,000.0,033.8,027.4,021.6,0000.0,0007.72,0002.14,0001.61
2024-05-10 05:43:00,SystemResetWarning,0836.8,5.00,000.00,025.6,025.1,000.0,033.8,027.4,021.6,0000.0,0007.74,0002.13,0001.60
2024-05-10 05:44:00,SystemResetWarning,0836.8,5.00,000.00,025.6,025.1,000.0,033.8,027.4,021.5,0000.0,0007.55,0002.11,0001.58
2024-05-10 05:45:00,SystemResetWarning,0836.9,5.00,000.00,025.6,025.1,000.0,033.8,027.4,021.5,0000.0,0007.20,0002.10,0001.58
2024-05-10 05:46:00,SystemResetWarning,0836.9,4.99,000.00,025.7,025.1,000.0,033.9,027.5,021.5,0000.0,0006.20,0002.05,0001.58
2024-05-10 05:47:00,SystemResetWarning,0836.9,5.01,000.00,025.7,025.2,000.0,033.9,027.5,021.4,0000.0,0005.82,0002.04,0001.59
2024-05-10 05:48:00,SystemResetWarning,0836.9,5.00,000.00,025.7,025.2,000.0,033.9,027.5,021.4,0000.0,0004.56,0002.08,0001.60
2024-05-10 05:49:00,SystemResetWarning,0837.0,5.00,000.00,025.7,025.2,000.0,033.9,027.5,021.4,0000.0,0003.35,0002.11,0001.60
2024-05-10 05:50:00,SystemResetWarning,0837.0,5.00,000.00,025.7,025.2,000.0,033.9,027.5,021.5,0000.0,0003.38,0002.12,0001.60
2024-05-10 05:51:00,SystemResetWarning,0837.0,5.00,000.00,025.7,025.2,000.0,033.9,027.5,021.5,0000.0,0003.59,0002.11,0001.60
2024-05-10 05:52:00,SystemResetWarning,0837.0,5.00,000.00,025.8,025.3,000.0,034.0,027.6,021.4,0000.0,0003.52,0002.06,0001.59
2024-05-10 05:53:00,SystemResetWarning,0837.0,4.99,000.00,025.8,025.3,000.0,034.0,027.6,021.3,0000.0,0003.48,0002.04,0001.59
2024-05-10 05:54:00,SystemResetWarning,0836.9,4.99,000.00,025.8,025.3,000.0,034.0,027.6,021.1,0000.0,0003.40,0002.02,0001.59
2024-05-10 05:55:00,SystemResetWarning,0836.9,4.99,000.00,025.8,025.3,000.0,034.0,027.6,021.1,0000.0,0003.27,0001.98,0001.58
2024-05-10 05:56:00,SystemResetWarning,0836.9,5.01,000.00,025.8,025.3,000.0,034.0,027.6,021.0,0000.0,0003.32,0001.99,0001.57
2024-05-10 05:57:00,SystemResetWarning,0837.0,5.00,000.00,025.8,025.3,000.0,034.1,027.6,021.0,0000.0,0003.40,0002.00,0001.57
2024-05-10 05:58:00,SystemResetWarning,0837.0,5.00,000.00,025.9,025.3,000.0,034.1,027.6,021.1,0000.0,0003.28,0001.98,0001.57
2024-05-10 05:59:00,SystemResetWarning,0837.0,4.99,000.00,025.9,025.4,000.0,034.1,027.6,021.2,0000.0,0003.30,0001.95,0001.56
